This is the latest recevied weather packets stored in our database for station/object N5SRF. If no packets are shown the sender has not sent any weather packets the latest 10 day(s).
| Time | Temp. | Humidity | Pressure | Rain* | Wind** | Luminosity | Snow |
|---|---|---|---|---|---|---|---|
| 1777573262 | 19.44° C | 99% | 1016.2 hPa | 0 mm | - | 86 W/m² | - |
| 1777572958 | 19.44° C | 99% | 1016.1 hPa | 0 mm | - | 73 W/m² | - |
| 1777572654 | 19.44° C | 99% | 1016.4 hPa | 1.78 mm | - | 87 W/m² | - |
| 1777572353 | 19.44° C | 99% | 1016.4 hPa | 3.05 mm | - | 70 W/m² | - |
| 1777572050 | 18.89° C | 99% | 1016.4 hPa | 3.05 mm | - | 65 W/m² | - |
| 1777571750 | 19.44° C | 99% | 1016.4 hPa | 1.78 mm | - | 38 W/m² | - |
| 1777571448 | 19.44° C | 99% | 1016.8 hPa | 0 mm | - | 17 W/m² | - |
| 1777571144 | 19.44° C | 99% | 1016.4 hPa | 0 mm | - | 20 W/m² | - |
| 1777570840 | 20° C | 99% | 1016.3 hPa | 0 mm | - | 37 W/m² | - |
| 1777570536 | 20° C | 99% | 1015.9 hPa | 0 mm | - | 38 W/m² | - |
| 1777570233 | 20° C | 99% | 1015.9 hPa | 0 mm | - | 30 W/m² | - |
| 1777569927 | 20° C | 99% | 1015.7 hPa | 0 mm | - | 36 W/m² | - |
| 1777569624 | 20° C | 99% | 1016.2 hPa | 0 mm | - | 41 W/m² | - |
| 1777569321 | 20.56° C | 99% | 1015.8 hPa | 0 mm | - | 64 W/m² | - |
| 1777569017 | 20.56° C | 99% | 1015.5 hPa | 0 mm | - | 73 W/m² | - |
| 1777568714 | 20.56° C | 99% | 1015.3 hPa | 1.27 mm | - | 103 W/m² | - |
| 1777568411 | 20.56° C | 99% | 1015.3 hPa | 1.27 mm | - | 101 W/m² | - |
| 1777568108 | 20.56° C | 99% | 1015.2 hPa | 0 mm | - | 201 W/m² | - |
| 1777567804 | 20° C | 99% | 1015.5 hPa | 0 mm | - | 93 W/m² | - |
| 1777567501 | 20.56° C | 99% | 1015.8 hPa | 0 mm | - | 46 W/m² | - |
| 1777567198 | 20° C | 99% | 1015.5 hPa | 0 mm | - | 53 W/m² | - |
| 1777566896 | 20° C | 99% | 1015.5 hPa | 0 mm | - | 80 W/m² | - |
| 1777566594 | 20° C | 99% | 1015.4 hPa | 0 mm | - | 90 W/m² | - |
| 1777566291 | 20° C | 99% | 1015.5 hPa | 0 mm | - | 63 W/m² | - |
| 1777565989 | 20° C | 99% | 1015.4 hPa | 0 mm | - | 64 W/m² | - |
* Rain latest hour (hover to see other rain measurements)
** Current wind speed in m/s (hover to see current wind gust speed)